Погода в Петропавловском

Россия / Сахалинская область     46°47′07″N   142°29′49″E
темп.,
°C
ветер,
м/с
пор.,
м/с
влажн.,
%
обл.,
%
осадки,
мм/ч
давл.,
гПа
погр.,
м
20 мая, пт
пт2023:00+7ю359992 0.0 101184
02:00+5в119537 0.0 101010
05:00+6ююв119827 0.0 100911
08:00+8юв0196100 0.0 1009104
11:00+12ю5879100 0.0 1008638
14:00+14ююз346749 0.0 1007755
17:00+15зсз576218 0.2 1008967
20:00+12з57746 0.0 1009238
21 мая, сб
сб2123:00+7з118968 0.0 101110
02:00+6всв2294100 0.0 101114
05:00+4ююв229894 0.0 1012106
08:00+6вюв2398100 0.1 1012160
11:00+7ююв349598 0.1 1011232
14:00+9ююв349093 0.0 1011218
17:00+10ююв358544 0.1 1009212
20:00+7юв229692 0.0 100999
22 мая, вс
вс2223:00+6вюв1198100 0.0 101043
02:00+6в119864 0.0 100924
05:00+6в119733 0.0 100821
08:00+9всв10889 0.0 100883
11:00+12ююв348076 0.0 1008288
14:00+11ююв3585100 0.0 1009240
17:00+13ююв367786 0.1 1009240
20:00+11ююв228799 0.0 100931
23 мая, пн
пн2323:00+8св119110 0.0 101110
02:00+8ссз1190100 0.0 101110
05:00+9ссв008771 0.0 101110
08:00+12всв118051 0.0 101292
11:00+13ю238063 0.0 1013297
14:00+12ю3486100 0.3 1013230
17:00+12ю448399 0.3 1012244
20:00+8ююз3496100 0.0 1014109
24 мая, вт
вт2423:00+7ююз3496100 0.0 1014123
02:00+6ююв239899 0.0 101491
05:00+6юв2298100 0.0 101398
08:00+8ююв3397100 0.0 1013148
11:00+12ююз368891 0.3 1011397
14:00+15юз587382 0.1 1010800
17:00+11зсз51094100 1.4 1012535
20:00+10ссз3490100 0.6 1012359